Time,TemperatureF,DewpointF,PressureIn,WindDirection,WindDirectionDegrees,WindSpeedMPH,WindSpeedGustMPH,Humidity,HourlyPrecipIn,Conditions,Clouds,dailyrainin,SolarRadiationWatts/m^2,SoftwareType,DateUTC
2013-02-17 00:02:00,43.0,29.0,-100.00,SSE,156,3.0,6.0,57,0.00,,,0.00,0.000000,,2013-02-17 06:02:00,
2013-02-17 00:10:00,43.0,28.0,-100.00,SSE,153,3.0,6.0,56,0.00,,,0.00,0.000000,,2013-02-17 06:10:00,
2013-02-17 00:32:00,43.0,28.0,-100.00,SSE,153,3.0,6.0,56,0.00,,,0.00,0.000000,,2013-02-17 06:32:00,
2013-02-17 00:42:00,43.0,28.0,-100.00,SSE,153,3.0,6.0,56,0.00,,,0.00,0.000000,,2013-02-17 06:42:00,
2013-02-17 00:52:00,43.0,28.0,-100.00,SSE,153,3.0,6.0,56,0.00,,,0.00,0.000000,,2013-02-17 06:52:00,
2013-02-17 01:01:00,43.0,28.0,-100.00,SSE,153,3.0,6.0,56,0.00,,,0.00,0.000000,,2013-02-17 07:01:00,
2013-02-17 01:10:00,41.0,29.0,-100.00,SSE,152,3.0,6.0,62,0.00,,,0.00,0.000000,,2013-02-17 07:10:00,
2013-02-17 01:42:00,41.0,29.0,-100.00,SSE,152,3.0,6.0,62,0.00,,,0.00,0.000000,,2013-02-17 07:42:00,
2013-02-17 01:52:00,41.0,29.0,-100.00,SSE,152,3.0,6.0,62,0.00,,,0.00,0.000000,,2013-02-17 07:52:00,
2013-02-17 02:01:00,41.0,29.0,-100.00,SSE,152,3.0,6.0,62,0.00,,,0.00,0.000000,,2013-02-17 08:01:00,
2013-02-17 02:10:00,40.0,29.0,-100.00,SSE,159,4.0,6.0,65,0.00,,,0.00,0.000000,,2013-02-17 08:10:00,
2013-02-17 02:42:00,40.0,29.0,-100.00,SSE,159,4.0,6.0,65,0.00,,,0.00,0.000000,,2013-02-17 08:42:00,
2013-02-17 02:52:00,40.0,29.0,-100.00,SSE,159,4.0,6.0,65,0.00,,,0.00,0.000000,,2013-02-17 08:52:00,
2013-02-17 03:02:00,40.0,29.0,-100.00,SSE,159,4.0,6.0,65,0.00,,,0.00,0.000000,,2013-02-17 09:02:00,
2013-02-17 03:10:00,40.0,30.0,-100.00,SSE,159,4.0,7.0,67,0.00,,,0.00,0.000000,,2013-02-17 09:10:00,
2013-02-17 03:42:00,40.0,30.0,-100.00,SSE,159,4.0,7.0,67,0.00,,,0.00,0.000000,,2013-02-17 09:42:00,
2013-02-17 03:52:00,40.0,30.0,-100.00,SSE,159,4.0,7.0,67,0.00,,,0.00,0.000000,,2013-02-17 09:52:00,
2013-02-17 04:01:00,40.0,30.0,-100.00,SSE,159,4.0,7.0,67,0.00,,,0.00,0.000000,,2013-02-17 10:01:00,
2013-02-17 04:10:00,39.0,29.0,-100.00,SSE,161,5.0,7.0,68,0.00,,,0.00,0.000000,,2013-02-17 10:10:00,
2013-02-17 04:42:00,39.0,29.0,-100.00,SSE,161,5.0,7.0,68,0.00,,,0.00,0.000000,,2013-02-17 10:42:00,
2013-02-17 04:52:00,39.0,29.0,-100.00,SSE,161,5.0,7.0,68,0.00,,,0.00,0.000000,,2013-02-17 10:52:00,
2013-02-17 05:01:00,39.0,29.0,-100.00,SSE,161,5.0,7.0,68,0.00,,,0.00,0.000000,,2013-02-17 11:01:00,
2013-02-17 05:10:00,38.0,30.0,-100.00,SSE,150,3.0,7.0,72,0.00,,,0.00,0.000000,,2013-02-17 11:10:00,
2013-02-17 05:42:00,38.0,30.0,-100.00,SSE,150,3.0,7.0,72,0.00,,,0.00,0.000000,,2013-02-17 11:42:00,
2013-02-17 05:52:00,38.0,30.0,-100.00,SSE,150,3.0,7.0,72,0.00,,,0.00,0.000000,,2013-02-17 11:52:00,
2013-02-17 06:03:00,38.0,30.0,-100.00,SSE,150,3.0,7.0,72,0.00,,,0.00,0.000000,,2013-02-17 12:03:00,
2013-02-17 06:10:00,37.0,30.0,-100.00,SSE,155,4.0,6.0,76,0.00,,,0.00,0.000000,,2013-02-17 12:10:00,
2013-02-17 06:32:00,37.0,30.0,-100.00,SSE,155,4.0,6.0,76,0.00,,,0.00,0.000000,,2013-02-17 12:32:00,
2013-02-17 06:42:00,37.0,30.0,-100.00,SSE,155,4.0,6.0,76,0.00,,,0.00,0.000000,,2013-02-17 12:42:00,
2013-02-17 06:52:00,37.0,30.0,-100.00,SSE,155,4.0,6.0,76,0.00,,,0.00,0.000000,,2013-02-17 12:52:00,
2013-02-17 07:02:00,37.0,30.0,-100.00,SSE,155,4.0,6.0,76,0.00,,,0.00,0.000000,,2013-02-17 13:02:00,
2013-02-17 08:10:00,42.0,34.0,-100.00,SSE,160,4.0,6.0,74,-99.99,,,0.00,111.000000,,2013-02-17 14:10:00,
2013-02-17 08:42:00,42.0,34.0,-100.00,SSE,160,4.0,6.0,74,-99.99,,,0.00,111.000000,,2013-02-17 14:42:00,
2013-02-17 08:53:00,42.0,34.0,-100.00,SSE,160,4.0,6.0,74,-99.99,,,0.00,111.000000,,2013-02-17 14:53:00,
2013-02-17 09:02:00,42.0,34.0,-100.00,SSE,160,4.0,6.0,74,-99.99,,,0.00,111.000000,,2013-02-17 15:02:00,
2013-02-17 09:10:00,51.0,38.0,-100.00,SSW,199,7.0,11.0,62,0.00,,,0.00,351.000000,,2013-02-17 15:10:00,
2013-02-17 09:42:00,51.0,38.0,-100.00,SSW,199,7.0,11.0,62,0.00,,,0.00,351.000000,,2013-02-17 15:42:00,
2013-02-17 09:52:00,51.0,38.0,-100.00,SSW,199,7.0,11.0,62,0.00,,,0.00,351.000000,,2013-02-17 15:52:00,
2013-02-17 10:01:00,51.0,38.0,-100.00,SSW,199,7.0,11.0,62,0.00,,,0.00,351.000000,,2013-02-17 16:01:00,
2013-02-17 10:10:00,58.0,34.0,-100.00,SSW,207,13.0,17.0,41,0.00,,,0.00,575.000000,,2013-02-17 16:10:00,
2013-02-17 10:32:00,58.0,34.0,-100.00,SSW,207,13.0,17.0,41,0.00,,,0.00,575.000000,,2013-02-17 16:32:00,
2013-02-17 11:02:00,58.0,34.0,-100.00,SSW,207,13.0,17.0,41,0.00,,,0.00,575.000000,,2013-02-17 17:02:00,
2013-02-17 11:10:00,62.0,35.0,-100.00,South,188,11.0,19.0,37,0.00,,,0.00,753.000000,,2013-02-17 17:10:00,
2013-02-17 11:32:00,62.0,35.0,-100.00,South,188,11.0,19.0,37,0.00,,,0.00,753.000000,,2013-02-17 17:32:00,
2013-02-17 12:02:00,62.0,35.0,-100.00,South,188,11.0,19.0,37,0.00,,,0.00,753.000000,,2013-02-17 18:02:00,
2013-02-17 12:10:00,65.0,34.0,-100.00,SSW,192,13.0,22.0,32,0.00,,,0.00,866.000000,,2013-02-17 18:10:00,
2013-02-17 12:42:00,65.0,34.0,-100.00,SSW,192,13.0,22.0,32,0.00,,,0.00,866.000000,,2013-02-17 18:42:00,
2013-02-17 12:52:00,65.0,34.0,-100.00,SSW,192,13.0,22.0,32,0.00,,,0.00,866.000000,,2013-02-17 18:52:00,
2013-02-17 13:01:00,65.0,34.0,-100.00,SSW,192,13.0,22.0,32,0.00,,,0.00,866.000000,,2013-02-17 19:01:00,
2013-02-17 13:10:00,67.0,34.0,-100.00,South,190,17.0,24.0,29,0.00,,,0.00,901.000000,,2013-02-17 19:10:00,
2013-02-17 13:42:00,67.0,34.0,-100.00,South,190,17.0,24.0,29,0.00,,,0.00,901.000000,,2013-02-17 19:42:00,
2013-02-17 13:52:00,67.0,34.0,-100.00,South,190,17.0,24.0,29,0.00,,,0.00,901.000000,,2013-02-17 19:52:00,
2013-02-17 14:02:00,67.0,34.0,-100.00,South,190,17.0,24.0,29,0.00,,,0.00,901.000000,,2013-02-17 20:02:00,
2013-02-17 14:10:00,70.0,30.0,-100.00,SSW,194,14.0,25.0,23,0.00,,,0.00,859.000000,,2013-02-17 20:10:00,
2013-02-17 14:42:00,70.0,30.0,-100.00,SSW,194,14.0,25.0,23,0.00,,,0.00,859.000000,,2013-02-17 20:42:00,
2013-02-17 14:52:00,70.0,30.0,-100.00,SSW,194,14.0,25.0,23,0.00,,,0.00,859.000000,,2013-02-17 20:52:00,
2013-02-17 15:02:00,70.0,30.0,-100.00,SSW,194,14.0,25.0,23,0.00,,,0.00,859.000000,,2013-02-17 21:02:00,
2013-02-17 15:10:00,71.0,31.0,-100.00,South,190,14.0,25.0,23,0.00,,,0.00,737.000000,,2013-02-17 21:10:00,
2013-02-17 15:42:00,71.0,31.0,-100.00,South,190,14.0,25.0,23,0.00,,,0.00,737.000000,,2013-02-17 21:42:00,
2013-02-17 15:53:00,71.0,31.0,-100.00,South,190,14.0,25.0,23,0.00,,,0.00,737.000000,,2013-02-17 21:53:00,
2013-02-17 16:01:00,71.0,31.0,-100.00,South,190,14.0,25.0,23,0.00,,,0.00,737.000000,,2013-02-17 22:01:00,
2013-02-17 16:10:00,70.0,32.0,-100.00,South,187,16.0,25.0,24,0.00,,,0.00,555.000000,,2013-02-17 22:10:00,
2013-02-17 16:32:00,70.0,32.0,-100.00,South,187,16.0,25.0,24,0.00,,,0.00,555.000000,,2013-02-17 22:32:00,
2013-02-17 16:42:00,70.0,32.0,-100.00,South,187,16.0,25.0,24,0.00,,,0.00,555.000000,,2013-02-17 22:42:00,
2013-02-17 16:52:00,70.0,32.0,-100.00,South,187,16.0,25.0,24,0.00,,,0.00,555.000000,,2013-02-17 22:52:00,
2013-02-17 17:02:00,70.0,32.0,-100.00,South,187,16.0,25.0,24,0.00,,,0.00,555.000000,,2013-02-17 23:02:00,
2013-02-17 17:10:00,69.0,33.0,-100.00,South,180,12.0,27.0,26,0.00,,,0.00,329.000000,,2013-02-17 23:10:00,
2013-02-17 17:42:00,69.0,33.0,-100.00,South,180,12.0,27.0,26,0.00,,,0.00,329.000000,,2013-02-17 23:42:00,
2013-02-17 17:52:00,69.0,33.0,-100.00,South,180,12.0,27.0,26,0.00,,,0.00,329.000000,,2013-02-17 23:52:00,
2013-02-17 18:01:00,69.0,33.0,-100.00,South,180,12.0,27.0,26,0.00,,,0.00,329.000000,,2013-02-18 00:01:00,
2013-02-17 18:10:00,65.0,34.0,-100.00,South,175,12.0,22.0,32,0.00,,,0.00,101.000000,,2013-02-18 00:10:00,
2013-02-17 18:42:00,65.0,34.0,-100.00,South,175,12.0,22.0,32,0.00,,,0.00,101.000000,,2013-02-18 00:42:00,
2013-02-17 18:52:00,65.0,34.0,-100.00,South,175,12.0,22.0,32,0.00,,,0.00,101.000000,,2013-02-18 00:52:00,
2013-02-17 19:01:00,65.0,34.0,-100.00,South,175,12.0,22.0,32,0.00,,,0.00,101.000000,,2013-02-18 01:01:00,
2013-02-17 20:10:00,62.0,42.0,-100.00,South,177,16.0,26.0,48,-99.99,,,0.00,0.000000,,2013-02-18 02:10:00,
2013-02-17 20:42:00,62.0,42.0,-100.00,South,177,16.0,26.0,48,-99.99,,,0.00,0.000000,,2013-02-18 02:42:00,
2013-02-17 20:52:00,62.0,42.0,-100.00,South,177,16.0,26.0,48,-99.99,,,0.00,0.000000,,2013-02-18 02:52:00,
2013-02-17 21:01:00,62.0,42.0,-100.00,South,177,16.0,26.0,48,-99.99,,,0.00,0.000000,,2013-02-18 03:01:00,
2013-02-17 21:10:00,60.0,43.0,-100.00,South,174,13.0,26.0,54,0.00,,,0.00,0.000000,,2013-02-18 03:10:00,
2013-02-17 21:32:00,60.0,43.0,-100.00,South,174,13.0,26.0,54,0.00,,,0.00,0.000000,,2013-02-18 03:32:00,
2013-02-17 21:42:00,60.0,43.0,-100.00,South,174,13.0,26.0,54,0.00,,,0.00,0.000000,,2013-02-18 03:42:00,
2013-02-17 21:52:00,60.0,43.0,-100.00,South,174,13.0,26.0,54,0.00,,,0.00,0.000000,,2013-02-18 03:52:00,
2013-02-17 22:01:00,60.0,43.0,-100.00,South,174,13.0,26.0,54,0.00,,,0.00,0.000000,,2013-02-18 04:01:00,
2013-02-17 22:10:00,59.0,44.0,-100.00,SSE,168,12.0,20.0,58,0.00,,,0.00,0.000000,,2013-02-18 04:10:00,
2013-02-17 22:42:00,59.0,44.0,-100.00,SSE,168,12.0,20.0,58,0.00,,,0.00,0.000000,,2013-02-18 04:42:00,
2013-02-17 22:52:00,59.0,44.0,-100.00,SSE,168,12.0,20.0,58,0.00,,,0.00,0.000000,,2013-02-18 04:52:00,
2013-02-17 23:02:00,59.0,44.0,-100.00,SSE,168,12.0,20.0,58,0.00,,,0.00,0.000000,,2013-02-18 05:02:00,
2013-02-17 23:10:00,58.0,45.0,-100.00,SSE,164,11.0,19.0,63,0.00,,,0.00,0.000000,,2013-02-18 05:10:00,
2013-02-17 23:32:00,58.0,45.0,-100.00,SSE,164,11.0,19.0,63,0.00,,,0.00,0.000000,,2013-02-18 05:32:00,
2013-02-17 23:42:00,58.0,45.0,-100.00,SSE,164,11.0,19.0,63,0.00,,,0.00,0.000000,,2013-02-18 05:42:00,
2013-02-17 23:52:00,58.0,45.0,-100.00,SSE,164,11.0,19.0,63,0.00,,,0.00,0.000000,,2013-02-18 05:52:00,